| time (UTC) | temp F | wind direction | speed knots | gust knots | rain 1hr in | rain 24hr in | rain mn in | humidity % | barometer mb |
| 20260831112503 | 74 | 203 | 2.6 | 2.6 | 0.00 | 0.00 | 0.00 | 79 | 1012.4 |
| 20260831111958 | 74 | 255 | 1.7 | 2.6 | 0.00 | 0.00 | 0.00 | 79 | 1012.5 |
| 20260831111454 | 74 | 347 | 0.9 | 1.7 | 0.00 | 0.00 | 0.00 | 79 | 1012.5 |
| 20260831110949 | 74 | 208 | 2.6 | 2.6 | 0.00 | 0.00 | 0.00 | 80 | 1012.4 |
| 20260831110444 | 74 | 325 | 1.7 | 2.6 | 0.00 | 0.00 | 0.00 | 79 | 1012.6 |
| 20260831105943 | 74 | 252 | 2.6 | 2.6 | 0.00 | 0.00 | 0.00 | 80 | 1012.8 |
| 20260831105439 | 74 | 267 | 0.9 | 1.7 | 0.00 | 0.00 | 0.00 | 79 | 1012.6 |
| 20260831104939 | 74 | 283 | 1.7 | 1.7 | 0.00 | 0.00 | 0.00 | 79 | 1012.6 |
| 20260831104435 | 74 | 218 | 2.6 | 2.6 | 0.00 | 0.00 | 0.00 | 79 | 1012.6 |
| 20260831103931 | 74 | 251 | 1.7 | 1.7 | 0.00 | 0.00 | 0.00 | 79 | 1012.7 |
| 20260831103426 | 74 | 349 | 1.7 | 1.7 | 0.00 | 0.00 | 0.00 | 79 | 1012.7 |
| 20260831102921 | 74 | 289 | 1.7 | 2.6 | 0.00 | 0.00 | 0.00 | 79 | 1012.8 |
| 20260831102416 | 74 | 252 | 1.7 | 1.7 | 0.00 | 0.00 | 0.00 | 79 | 1012.8 |
| 20260831101911 | 74 | 308 | 0.9 | 0.9 | 0.00 | 0.00 | 0.00 | 79 | 1012.8 |
| 20260831101406 | 74 | 289 | 1.7 | 1.7 | 0.00 | 0.00 | 0.00 | 79 | 1012.8 |
| 20260831100903 | 74 | 276 | 1.7 | 1.7 | 0.00 | 0.00 | 0.00 | 79 | 1012.7 |
| 20260831100358 | 74 | 207 | 1.7 | 1.7 | 0.00 | 0.00 | 0.00 | 79 | 1012.9 |
| 20260831095858 | 74 | 298 | 1.7 | 1.7 | 0.00 | 0.00 | 0.00 | 79 | 1012.8 |
| 20260831095357 | 74 | 225 | 3.5 | 3.5 | 0.00 | 0.00 | 0.00 | 79 | 1012.9 |
| 20260831094853 | 74 | 294 | 1.7 | 2.6 | 0.00 | 0.00 | 0.00 | 79 | 1012.9 |
| 20260831094348 | 74 | 341 | 1.7 | 2.6 | 0.00 | 0.00 | 0.00 | 79 | 1012.8 |
| 20260831093844 | 74 | 231 | 2.6 | 2.6 | 0.00 | 0.00 | 0.00 | 79 | 1013.0 |
| 20260831093339 | 74 | 312 | 1.7 | 1.7 | 0.00 | 0.00 | 0.00 | 79 | 1013.0 |
| 20260831092836 | 74 | 315 | 1.7 | 1.7 | 0.00 | 0.00 | 0.00 | 79 | 1012.9 |
| 20260831092331 | 74 | 306 | 1.7 | 1.7 | 0.00 | 0.00 | 0.00 | 79 | 1012.9 |
| 20260831091825 | 74 | 287 | 0.9 | 1.7 | 0.00 | 0.00 | 0.00 | 79 | 1013.0 |
| 20260831091316 | 74 | 308 | 1.7 | 1.7 | 0.00 | 0.00 | 0.00 | 79 | 1013.0 |
| 20260831090811 | 74 | 219 | 1.7 | 1.7 | 0.00 | 0.00 | 0.00 | 79 | 1013.1 |
| 20260831090306 | 74 | 205 | 2.6 | 2.6 | 0.00 | 0.00 | 0.00 | 79 | 1013.1 |
| 20260831085802 | 74 | 221 | 1.7 | 2.6 | 0.00 | 0.00 | 0.00 | 79 | 1013.2 |
| 20260831085252 | 74 | 340 | 1.7 | 2.6 | 0.00 | 0.00 | 0.00 | 78 | 1013.1 |
| 20260831084746 | 74 | 222 | 3.5 | 3.5 | 0.00 | 0.00 | 0.00 | 78 | 1012.9 |
| 20260831084243 | 74 | 234 | 2.6 | 3.5 | 0.00 | 0.00 | 0.00 | 79 | 1012.9 |
| 20260831083738 | 74 | 322 | 1.7 | 1.7 | 0.00 | 0.00 | 0.00 | 79 | 1013.1 |
| 20260831083234 | 74 | 198 | 2.6 | 2.6 | 0.00 | 0.00 | 0.00 | 79 | 1012.9 |
| 20260831082732 | 74 | 217 | 3.5 | 5.2 | 0.00 | 0.00 | 0.00 | 80 | 1012.9 |
| 20260831082228 | 74 | 277 | 1.7 | 2.6 | 0.00 | 0.00 | 0.00 | 80 | 1012.9 |
| 20260831081723 | 74 | 318 | 1.7 | 3.5 | 0.00 | 0.00 | 0.00 | 80 | 1012.8 |
| 20260831081219 | 74 | 265 | 1.7 | 1.7 | 0.00 | 0.00 | 0.00 | 81 | 1012.8 |
| 20260831080714 | 74 | 321 | 1.7 | 2.6 | 0.00 | 0.00 | 0.00 | 81 | 1012.8 |
| 20260831080213 | 74 | 196 | 3.5 | 3.5 | 0.00 | 0.00 | 0.00 | 81 | 1012.8 |
| 20260831075709 | 74 | 236 | 1.7 | 2.6 | 0.00 | 0.00 | 0.00 | 81 | 1012.7 |
| 20260831075205 | 74 | 282 | 1.7 | 1.7 | 0.00 | 0.00 | 0.00 | 81 | 1012.9 |
| 20260831074704 | 74 | 314 | 1.7 | 1.7 | 0.00 | 0.00 | 0.00 | 81 | 1012.7 |
| 20260831074159 | 74 | 309 | 0.9 | 1.7 | 0.00 | 0.00 | 0.00 | 81 | 1012.7 |
| 20260831073654 | 74 | 203 | 1.7 | 1.7 | 0.00 | 0.00 | 0.00 | 81 | 1012.7 |
| 20260831073153 | 74 | 227 | 2.6 | 2.6 | 0.00 | 0.00 | 0.00 | 81 | 1012.8 |
| 20260831072649 | 74 | 181 | 0.9 | 1.7 | 0.00 | 0.00 | 0.00 | 82 | 1012.9 |
| 20260831072145 | 74 | 206 | 2.6 | 2.6 | 0.00 | 0.00 | 0.00 | 82 | 1013.0 |
| 20260831071644 | 74 | 220 | 2.6 | 3.5 | 0.00 | 0.00 | 0.00 | 82 | 1013.1 |
| 20260831071139 | 74 | 306 | 1.7 | 1.7 | 0.00 | 0.00 | 0.00 | 82 | 1013.1 |
| 20260831070638 | 74 | 298 | 1.7 | 1.7 | 0.00 | 0.00 | 0.00 | 82 | 1013.2 |
| 20260831070133 | 74 | 340 | 0.9 | 2.6 | 0.00 | 0.00 | 0.00 | 83 | 1013.3 |
| 20260831065631 | 74 | 282 | 2.6 | 2.6 | 0.00 | 0.00 | 0.00 | 83 | 1013.2 |
| 20260831065125 | 74 | 235 | 2.6 | 3.5 | 0.00 | 0.00 | 0.00 | 84 | 1013.3 |
| 20260831064625 | 74 | 320 | 0.9 | 1.7 | 0.00 | 0.00 | 0.00 | 85 | 1013.4 |
| 20260831064121 | 74 | 329 | 1.7 | 1.7 | 0.00 | 0.00 | 0.00 | 85 | 1013.4 |
| 20260831063617 | 74 | 305 | 0.9 | 0.9 | 0.00 | 0.00 | 0.00 | 86 | 1013.5 |
| 20260831063112 | 74 | 16 | 1.7 | 1.7 | 0.00 | 0.00 | 0.00 | 86 | 1013.5 |
| 20260831062607 | 74 | 306 | 1.7 | 1.7 | 0.00 | 0.00 | 0.00 | 87 | 1013.5 |
| 20260831062106 | 73 | 250 | 1.7 | 1.7 | 0.00 | 0.00 | 0.00 | 88 | 1013.6 |
| 20260831061604 | 73 | 339 | 1.7 | 1.7 | 0.00 | 0.00 | 0.00 | 88 | 1013.5 |
| 20260831061100 | 73 | 161 | 1.7 | 2.6 | 0.00 | 0.00 | 0.00 | 88 | 1013.5 |
| 20260831060556 | 73 | 11 | 1.7 | 1.7 | 0.00 | 0.00 | 0.00 | 89 | 1013.5 |
| 20260831060050 | 73 | 318 | 0.9 | 1.7 | 0.00 | 0.00 | 0.00 | 89 | 1013.5 |
| 20260831055545 | 73 | 326 | 1.7 | 2.6 | 0.00 | 0.00 | 0.00 | 88 | 1013.5 |
| 20260831055041 | 74 | 345 | 1.7 | 1.7 | 0.00 | 0.00 | 0.00 | 88 | 1013.6 |
| 20260831054540 | 74 | 173 | 2.6 | 3.5 | 0.00 | 0.00 | 0.00 | 88 | 1013.5 |
| 20260831054039 | 74 | 147 | 1.7 | 2.6 | 0.00 | 0.00 | 0.00 | 88 | 1013.5 |
| 20260831053538 | 74 | 301 | 0.9 | 1.7 | 0.00 | 0.00 | 0.00 | 88 | 1013.7 |
| 20260831053033 | 74 | 206 | 3.5 | 6.1 | 0.00 | 0.00 | 0.00 | 88 | 1013.6 |
| 20260831052532 | 74 | 198 | 5.2 | 6.1 | 0.00 | 0.00 | 0.00 | 88 | 1013.4 |
| 20260831052026 | 74 | 328 | 0.9 | 1.7 | 0.00 | 0.00 | 0.00 | 88 | 1013.4 |
| 20260831051524 | 74 | 282 | 3.5 | 3.5 | 0.00 | 0.00 | 0.00 | 88 | 1013.5 |
| 20260831051024 | 74 | 330 | 0.9 | 0.9 | 0.00 | 0.00 | 0.00 | 88 | 1013.6 |
| 20260831050523 | 74 | 214 | 1.7 | 3.5 | 0.00 | 0.00 | 0.00 | 89 | 1013.5 |
| 20260831050022 | 75 | 197 | 2.6 | 2.6 | 0.00 | 0.30 | 0.30 | 88 | 1013.6 |
| 20260831045521 | 75 | 347 | 0.0 | 0.9 | 0.00 | 0.30 | 0.30 | 88 | 1013.9 |
| 20260831045017 | 75 | 325 | 0.0 | 0.9 | 0.00 | 0.30 | 0.30 | 87 | 1013.9 |
| 20260831044512 | 75 | 299 | 1.7 | 2.6 | 0.00 | 0.30 | 0.30 | 88 | 1013.9 |
| 20260831044007 | 75 | 324 | 0.9 | 0.9 | 0.00 | 0.30 | 0.30 | 88 | 1013.5 |
| 20260831043507 | 75 | 101 | 3.5 | 5.2 | 0.00 | 0.30 | 0.30 | 88 | 1013.7 |
| 20260831043002 | 75 | 171 | 2.6 | 3.5 | 0.00 | 0.30 | 0.30 | 88 | 1013.6 |
| 20260831042502 | 75 | 228 | 1.7 | 1.7 | 0.00 | 0.30 | 0.30 | 89 | 1013.6 |
| 20260831041957 | 75 | 92 | 4.3 | 6.1 | 0.00 | 0.30 | 0.30 | 89 | 1013.7 |
| 20260831041452 | 75 | 10 | 1.7 | 2.6 | 0.00 | 0.30 | 0.30 | 89 | 1013.7 |
| 20260831040951 | 75 | 186 | 3.5 | 3.5 | 0.00 | 0.30 | 0.30 | 89 | 1013.6 |
| 20260831040446 | 75 | 24 | 0.9 | 1.7 | 0.00 | 0.30 | 0.30 | 89 | 1013.9 |
| 20260831035943 | 75 | 260 | 3.5 | 6.1 | 0.00 | 0.30 | 0.30 | 88 | 1014.0 |
| 20260831035443 | 75 | 289 | 1.7 | 1.7 | 0.00 | 0.30 | 0.30 | 89 | 1014.1 |
| 20260831034938 | 74 | 350 | 0.9 | 1.7 | 0.00 | 0.30 | 0.30 | 89 | 1014.2 |
| 20260831034433 | 74 | 207 | 2.6 | 2.6 | 0.00 | 0.30 | 0.30 | 89 | 1014.1 |
| 20260831033928 | 74 | 213 | 3.5 | 5.2 | 0.00 | 0.30 | 0.30 | 90 | 1013.7 |
| 20260831033424 | 74 | 234 | 2.6 | 3.5 | 0.00 | 0.30 | 0.30 | 89 | 1013.9 |
| 20260831032920 | 74 | 210 | 4.3 | 5.2 | 0.00 | 0.30 | 0.30 | 89 | 1014.1 |
| 20260831032419 | 75 | 171 | 2.6 | 5.2 | 0.00 | 0.30 | 0.30 | 89 | 1014.2 |
| 20260831031915 | 75 | 343 | 2.6 | 3.5 | 0.00 | 0.30 | 0.30 | 88 | 1014.3 |
| 20260831031414 | 75 | 36 | 1.7 | 1.7 | 0.00 | 0.30 | 0.30 | 87 | 1014.5 |
| 20260831030908 | 75 | 95 | 2.6 | 3.5 | 0.00 | 0.30 | 0.30 | 87 | 1014.5 |
| 20260831030408 | 76 | 189 | 3.5 | 3.5 | 0.00 | 0.30 | 0.30 | 86 | 1014.3 |
| 20260831025906 | 76 | 236 | 2.6 | 2.6 | 0.00 | 0.30 | 0.30 | 86 | 1014.4 |
| 20260831025406 | 76 | 186 | 2.6 | 2.6 | 0.00 | 0.30 | 0.30 | 85 | 1014.4 |
| 20260831024902 | 75 | 159 | 2.6 | 2.6 | 0.00 | 0.30 | 0.30 | 86 | 1014.5 |
| 20260831024401 | 75 | 146 | 3.5 | 5.2 | 0.00 | 0.30 | 0.30 | 86 | 1014.4 |
| 20260831023901 | 75 | 359 | 0.9 | 1.7 | 0.00 | 0.30 | 0.30 | 87 | 1014.5 |
| 20260831023359 | 74 | 250 | 2.6 | 2.6 | 0.00 | 0.30 | 0.30 | 88 | 1014.5 |
| 20260831022855 | 74 | 3 | 0.0 | 0.0 | 0.00 | 0.30 | 0.30 | 89 | 1014.6 |
| 20260831022353 | 74 | 346 | 0.9 | 0.9 | 0.00 | 0.30 | 0.30 | 88 | 1014.6 |
| 20260831021848 | 74 | 353 | 0.0 | 0.9 | 0.00 | 0.30 | 0.30 | 88 | 1014.7 |
| 20260831021348 | 74 | 2 | 0.9 | 0.9 | 0.00 | 0.30 | 0.30 | 88 | 1014.3 |
| 20260831020844 | 74 | 344 | 0.0 | 0.9 | 0.00 | 0.30 | 0.30 | 88 | 1014.3 |
| 20260831020344 | 74 | 351 | 0.0 | 0.9 | 0.00 | 0.30 | 0.30 | 88 | 1014.5 |
| 20260831015839 | 74 | 8 | 0.9 | 1.7 | 0.00 | 0.30 | 0.30 | 88 | 1014.4 |
| 20260831015335 | 74 | 347 | 1.7 | 1.7 | 0.00 | 0.30 | 0.30 | 88 | 1014.4 |
| 20260831014835 | 74 | 92 | 0.9 | 1.7 | 0.00 | 0.30 | 0.30 | 88 | 1014.4 |
| 20260831014330 | 74 | 349 | 1.7 | 1.7 | 0.00 | 0.30 | 0.30 | 88 | 1014.2 |
| 20260831013826 | 74 | 40 | 1.7 | 2.6 | 0.00 | 0.30 | 0.30 | 88 | 1014.2 |
| 20260831013325 | 74 | 5 | 0.9 | 0.9 | 0.00 | 0.30 | 0.30 | 88 | 1014.2 |
| 20260831012820 | 74 | 75 | 1.7 | 2.6 | 0.00 | 0.30 | 0.30 | 88 | 1014.0 |
| 20260831012316 | 74 | 350 | 1.7 | 2.6 | 0.00 | 0.30 | 0.30 | 88 | 1014.0 |
| 20260831011815 | 73 | 91 | 3.5 | 3.5 | 0.00 | 0.30 | 0.30 | 89 | 1013.7 |
| 20260831011310 | 73 | 217 | 1.7 | 2.6 | 0.00 | 0.30 | 0.30 | 89 | 1013.9 |
| 20260831010801 | 73 | 84 | 2.6 | 2.6 | 0.00 | 0.30 | 0.30 | 89 | 1013.9 |
| 20260831010300 | 73 | 83 | 2.6 | 2.6 | 0.00 | 0.30 | 0.30 | 89 | 1014.0 |
| 20260831005756 | 73 | 43 | 3.5 | 5.2 | 0.00 | 0.30 | 0.30 | 89 | 1014.2 |
| 20260831005252 | 74 | 339 | 1.7 | 1.7 | 0.00 | 0.30 | 0.30 | 89 | 1014.2 |
| 20260831004746 | 74 | 96 | 4.3 | 5.2 | 0.00 | 0.30 | 0.30 | 89 | 1014.1 |
| 20260831004242 | 74 | 95 | 2.6 | 2.6 | 0.00 | 0.30 | 0.30 | 89 | 1014.1 |
| 20260831003738 | 74 | 153 | 3.5 | 5.2 | 0.00 | 0.30 | 0.30 | 88 | 1014.2 |
| 20260831003234 | 74 | 164 | 3.5 | 5.2 | 0.00 | 0.30 | 0.30 | 88 | 1014.3 |
| 20260831002733 | 74 | 228 | 2.6 | 2.6 | 0.00 | 0.30 | 0.30 | 88 | 1014.3 |
| 20260831002232 | 74 | 82 | 1.7 | 2.6 | 0.00 | 0.30 | 0.30 | 88 | 1014.2 |
| 20260831001729 | 74 | 61 | 2.6 | 3.5 | 0.00 | 0.30 | 0.30 | 88 | 1014.4 |
| 20260831001223 | 75 | 121 | 2.6 | 3.5 | 0.00 | 0.30 | 0.30 | 87 | 1014.4 |
| 20260831000720 | 75 | 101 | 2.6 | 2.6 | 0.00 | 0.30 | 0.30 | 86 | 1014.5 |
| 20260831000215 | 75 | 359 | 1.7 | 2.6 | 0.00 | 0.30 | 0.30 | 86 | 1014.8 |
| 20260830235714 | 75 | 134 | 2.6 | 3.5 | 0.00 | 0.30 | 0.30 | 85 | 1014.5 |
| 20260830235209 | 75 | 194 | 1.7 | 2.6 | 0.00 | 0.30 | 0.30 | 84 | 1014.7 |
| 20260830234704 | 75 | 14 | 1.7 | 1.7 | 0.00 | 0.30 | 0.30 | 85 | 1014.4 |
| 20260830234200 | 75 | 54 | 2.6 | 3.5 | 0.00 | 0.30 | 0.30 | 85 | 1014.5 |
| 20260830233655 | 75 | 87 | 4.3 | 6.1 | 0.00 | 0.30 | 0.30 | 85 | 1014.5 |
| 20260830233151 | 75 | 157 | 3.5 | 3.5 | 0.00 | 0.30 | 0.30 | 87 | 1014.7 |
| 20260830232646 | 75 | 61 | 1.7 | 2.6 | 0.00 | 0.30 | 0.30 | 87 | 1014.7 |
| 20260830232142 | 75 | 44 | 1.7 | 1.7 | 0.00 | 0.30 | 0.30 | 87 | 1015.0 |
| 20260830231638 | 74 | 336 | 2.6 | 3.5 | 0.00 | 0.30 | 0.30 | 86 | 1014.8 |
| 20260830231138 | 74 | 9 | 1.7 | 2.6 | 0.00 | 0.30 | 0.30 | 89 | 1014.8 |
| 20260830230633 | 74 | 237 | 2.6 | 3.5 | 0.00 | 0.30 | 0.30 | 89 | 1014.6 |
| 20260830230132 | 74 | 148 | 2.6 | 3.5 | 0.00 | 0.30 | 0.30 | 90 | 1014.6 |
| 20260830225628 | 74 | 149 | 3.5 | 5.2 | 0.00 | 0.30 | 0.30 | 89 | 1014.7 |
| 20260830225128 | 74 | 271 | 2.6 | 2.6 | 0.00 | 0.30 | 0.30 | 90 | 1014.7 |
| 20260830224627 | 74 | 347 | 0.0 | 0.0 | 0.00 | 0.30 | 0.30 | 90 | 1014.7 |
| 20260830224123 | 74 | 355 | 0.9 | 1.7 | 0.00 | 0.30 | 0.30 | 90 | 1014.5 |
| 20260830223620 | 74 | 355 | 0.9 | 0.9 | 0.00 | 0.30 | 0.30 | 90 | 1014.6 |
| 20260830223120 | 73 | 18 | 0.9 | 0.9 | 0.00 | 0.30 | 0.30 | 90 | 1014.4 |
| 20260830222620 | 73 | 8 | 0.0 | 0.0 | 0.00 | 0.30 | 0.30 | 90 | 1014.5 |
| 20260830222116 | 73 | 350 | 0.9 | 0.9 | 0.00 | 0.30 | 0.30 | 91 | 1014.7 |
| 20260830221612 | 73 | 1 | 0.9 | 1.7 | 0.00 | 0.30 | 0.30 | 91 | 1014.4 |
| 20260830221108 | 73 | 325 | 1.7 | 1.7 | 0.00 | 0.30 | 0.30 | 89 | 1014.7 |
| 20260830220603 | 73 | 350 | 0.9 | 0.9 | 0.00 | 0.30 | 0.30 | 89 | 1014.5 |
| 20260830220101 | 73 | 350 | 0.0 | 0.0 | 0.00 | 0.30 | 0.30 | 90 | 1014.4 |
| 20260830215600 | 72 | 351 | 0.0 | 0.0 | 0.00 | 0.30 | 0.30 | 91 | 1014.4 |
| 20260830215055 | 72 | 346 | 0.0 | 0.0 | 0.05 | 0.30 | 0.30 | 91 | 1014.4 |
| 20260830214550 | 73 | 153 | 3.5 | 3.5 | 0.05 | 0.30 | 0.30 | 90 | 1014.5 |
| 20260830214045 | 72 | 342 | 0.9 | 1.7 | 0.00 | 0.29 | 0.29 | 92 | 1014.6 |
| 20260830213540 | 72 | 315 | 1.7 | 1.7 | 0.00 | 0.29 | 0.29 | 92 | 1014.2 |
| 20260830213035 | 72 | 89 | 3.5 | 3.5 | 0.07 | 0.29 | 0.29 | 93 | 1014.3 |
| 20260830212530 | 72 | 340 | 0.0 | 0.0 | 0.19 | 0.29 | 0.29 | 95 | 1015.1 |
| 20260830212025 | 72 | 302 | 0.9 | 1.7 | 0.17 | 0.28 | 0.28 | 94 | 1014.5 |
| 20260830211520 | 72 | 309 | 2.6 | 2.6 | 0.12 | 0.26 | 0.26 | 93 | 1014.5 |
| 20260830211020 | 72 | 312 | 0.0 | 0.9 | 0.07 | 0.25 | 0.25 | 93 | 1013.9 |
| 20260830210515 | 72 | 69 | 1.7 | 1.7 | 0.14 | 0.25 | 0.25 | 92 | 1013.5 |
| 20260830210014 | 72 | 222 | 4.3 | 5.2 | 0.07 | 0.24 | 0.24 | 92 | 1013.4 |
| 20260830205512 | 72 | 120 | 2.6 | 2.6 | 0.05 | 0.23 | 0.23 | 93 | 1013.3 |
| 20260830205008 | 72 | 143 | 3.5 | 3.5 | 0.05 | 0.23 | 0.23 | 93 | 1013.5 |
| 20260830204506 | 72 | 293 | 2.6 | 3.5 | 0.07 | 0.22 | 0.22 | 92 | 1013.9 |
| 20260830204001 | 72 | 101 | 1.7 | 2.6 | 0.12 | 0.22 | 0.22 | 92 | 1013.9 |
| 20260830203457 | 72 | 190 | 7.8 | 12.2 | 0.12 | 0.21 | 0.21 | 92 | 1014.2 |
| 20260830202956 | 72 | 183 | 4.3 | 6.1 | 0.12 | 0.20 | 0.20 | 92 | 1014.3 |
| 20260830202451 | 72 | 202 | 5.2 | 6.1 | 0.12 | 0.19 | 0.19 | 91 | 1014.6 |
| 20260830201948 | 72 | 262 | 5.2 | 7.0 | 0.19 | 0.18 | 0.18 | 92 | 1014.4 |
| 20260830201446 | 72 | 217 | 7.0 | 8.7 | 0.17 | 0.17 | 0.17 | 93 | 1014.6 |
| 20260830200943 | 72 | 195 | 5.2 | 7.0 | 0.19 | 0.16 | 0.16 | 93 | 1015.0 |
| 20260830200442 | 72 | 212 | 6.1 | 7.0 | 0.19 | 0.14 | 0.14 | 93 | 1014.9 |
| 20260830195937 | 72 | 248 | 3.5 | 3.5 | 0.12 | 0.13 | 0.13 | 93 | 1015.6 |
| 20260830195432 | 72 | 307 | 1.7 | 1.7 | 0.07 | 0.11 | 0.11 | 92 | 1015.5 |
| 20260830194930 | 73 | 288 | 2.6 | 2.6 | 0.07 | 0.11 | 0.11 | 91 | 1015.7 |
| 20260830194430 | 72 | 313 | 0.9 | 0.9 | 0.00 | 0.10 | 0.10 | 91 | 1015.3 |
| 20260830193930 | 72 | 339 | 1.7 | 2.6 | 0.00 | 0.10 | 0.10 | 91 | 1015.4 |
| 20260830193428 | 73 | 310 | 1.7 | 1.7 | 0.00 | 0.10 | 0.10 | 91 | 1015.5 |
| 20260830192924 | 73 | 299 | 2.6 | 2.6 | 0.00 | 0.10 | 0.10 | 90 | 1015.4 |
| 20260830192420 | 72 | 291 | 1.7 | 2.6 | 0.00 | 0.10 | 0.10 | 90 | 1015.4 |
| 20260830191914 | 72 | 312 | 0.9 | 1.7 | 0.00 | 0.10 | 0.10 | 90 | 1015.3 |
| 20260830191414 | 72 | 287 | 1.7 | 1.7 | 0.00 | 0.10 | 0.10 | 91 | 1015.4 |
| 20260830190910 | 72 | 344 | 2.6 | 3.5 | 0.00 | 0.10 | 0.10 | 90 | 1015.1 |
| 20260830190405 | 72 | 215 | 3.5 | 3.5 | 0.00 | 0.10 | 0.10 | 90 | 1015.4 |
| 20260830185904 | 72 | 274 | 2.6 | 2.6 | 0.00 | 0.10 | 0.10 | 91 | 1015.5 |
| 20260830185359 | 72 | 280 | 4.3 | 6.1 | 0.00 | 0.10 | 0.10 | 91 | 1015.3 |
| 20260830184854 | 72 | 219 | 3.5 | 3.5 | 0.05 | 0.10 | 0.10 | 91 | 1015.4 |
| 20260830184353 | 71 | 343 | 0.9 | 1.7 | 0.05 | 0.10 | 0.10 | 91 | 1015.3 |
| 20260830183848 | 72 | 45 | 2.6 | 3.5 | 0.00 | 0.09 | 0.09 | 92 | 1015.3 |
| 20260830183348 | 72 | 335 | 1.7 | 1.7 | 0.07 | 0.09 | 0.09 | 91 | 1015.7 |
| 20260830182844 | 71 | 260 | 1.7 | 2.6 | 0.19 | 0.09 | 0.09 | 91 | 1015.7 |
| 20260830182339 | 71 | 273 | 1.7 | 2.6 | 0.17 | 0.08 | 0.08 | 91 | 1015.9 |
| 20260830181835 | 72 | 258 | 3.5 | 5.2 | 0.05 | 0.06 | 0.06 | 90 | 1016.0 |
| 20260830181331 | 72 | 275 | 2.6 | 3.5 | 0.07 | 0.05 | 0.05 | 90 | 1015.9 |
| 20260830180825 | 72 | 123 | 1.7 | 1.7 | 0.12 | 0.05 | 0.05 | 90 | 1015.9 |
| 20260830180324 | 72 | 241 | 5.2 | 7.0 | 0.05 | 0.04 | 0.04 | 89 | 1015.6 |
| 20260830175824 | 72 | 224 | 4.3 | 6.1 | 0.07 | 0.03 | 0.03 | 88 | 1015.6 |
| 20260830175319 | 72 | 247 | 3.5 | 5.2 | 0.07 | 0.03 | 0.03 | 88 | 1015.6 |
| 20260830174814 | 72 | 2 | 3.5 | 5.2 | 0.00 | 0.02 | 0.02 | 87 | 1015.4 |
| 20260830174310 | 73 | 271 | 4.3 | 5.2 | 0.05 | 0.02 | 0.02 | 86 | 1015.3 |
| 20260830173809 | 73 | 272 | 3.5 | 3.5 | 0.12 | 0.02 | 0.02 | 85 | 1015.0 |
| 20260830173305 | 74 | 258 | 3.5 | 5.2 | 0.07 | 0.01 | 0.01 | 83 | 1014.9 |
| 20260830172801 | 75 | 188 | 3.5 | 3.5 | 0.00 | 0.00 | 0.00 | 80 | 1015.3 |
| 20260830172257 | 76 | 309 | 3.5 | 3.5 | 0.00 | 0.00 | 0.00 | 77 | 1015.3 |
| 20260830171753 | 77 | 241 | 5.2 | 6.1 | 0.00 | 0.00 | 0.00 | 74 | 1015.3 |
| 20260830171248 | 77 | 255 | 7.0 | 7.8 | 0.00 | 0.00 | 0.00 | 72 | 1015.4 |
| 20260830170742 | 77 | 274 | 4.3 | 6.1 | 0.00 | 0.00 | 0.00 | 73 | 1015.3 |
| 20260830170242 | 77 | 240 | 4.3 | 5.2 | 0.00 | 0.00 | 0.00 | 73 | 1015.2 |
| 20260830165740 | 78 | 210 | 3.5 | 3.5 | 0.00 | 0.00 | 0.00 | 73 | 1015.0 |
| 20260830165236 | 78 | 257 | 3.5 | 3.5 | 0.00 | 0.00 | 0.00 | 73 | 1015.1 |
| 20260830164733 | 78 | 260 | 2.6 | 5.2 | 0.00 | 0.00 | 0.00 | 73 | 1015.0 |
| 20260830164228 | 78 | 229 | 3.5 | 5.2 | 0.00 | 0.00 | 0.00 | 72 | 1015.0 |
| 20260830163725 | 78 | 280 | 5.2 | 7.0 | 0.00 | 0.00 | 0.00 | 71 | 1014.9 |
| 20260830163220 | 78 | 188 | 3.5 | 3.5 | 0.00 | 0.00 | 0.00 | 71 | 1014.9 |
| 20260830162715 | 78 | 267 | 3.5 | 5.2 | 0.00 | 0.00 | 0.00 | 71 | 1014.8 |
| 20260830162211 | 78 | 254 | 4.3 | 6.1 | 0.00 | 0.00 | 0.00 | 70 | 1014.6 |
| 20260830161706 | 78 | 204 | 3.5 | 5.2 | 0.00 | 0.00 | 0.00 | 70 | 1014.6 |
| 20260830161200 | 78 | 225 | 3.5 | 3.5 | 0.00 | 0.00 | 0.00 | 69 | 1014.5 |
| 20260830160657 | 79 | 222 | 6.1 | 7.8 | 0.00 | 0.00 | 0.00 | 69 | 1014.2 |
| 20260830160156 | 79 | 281 | 2.6 | 3.5 | 0.00 | 0.00 | 0.00 | 69 | 1014.1 |
| 20260830155653 | 78 | 230 | 5.2 | 7.0 | 0.00 | 0.00 | 0.00 | 69 | 1014.1 |
| 20260830155149 | 78 | 278 | 1.7 | 2.6 | 0.00 | 0.00 | 0.00 | 69 | 1014.1 |
| 20260830154644 | 78 | 259 | 4.3 | 5.2 | 0.00 | 0.00 | 0.00 | 70 | 1013.9 |
| 20260830154140 | 78 | 110 | 5.2 | 7.0 | 0.00 | 0.00 | 0.00 | 69 | 1013.9 |
| 20260830153636 | 78 | 218 | 4.3 | 6.1 | 0.00 | 0.00 | 0.00 | 69 | 1013.9 |
| 20260830153136 | 79 | 293 | 3.5 | 6.1 | 0.00 | 0.00 | 0.00 | 68 | 1013.9 |
| 20260830152635 | 79 | 241 | 2.6 | 3.5 | 0.00 | 0.00 | 0.00 | 69 | 1014.0 |
| 20260830152134 | 78 | 222 | 4.3 | 5.2 | 0.00 | 0.00 | 0.00 | 69 | 1014.0 |
| 20260830151629 | 77 | 185 | 3.5 | 5.2 | 0.00 | 0.00 | 0.00 | 71 | 1014.1 |
| 20260830151124 | 77 | 206 | 2.6 | 3.5 | 0.00 | 0.00 | 0.00 | 73 | 1014.0 |
| 20260830150623 | 77 | 182 | 3.5 | 3.5 | 0.00 | 0.00 | 0.00 | 72 | 1014.1 |
| 20260830150118 | 77 | 199 | 4.3 | 5.2 | 0.00 | 0.00 | 0.00 | 72 | 1014.1 |
| 20260830145618 | 77 | 221 | 3.5 | 6.1 | 0.00 | 0.00 | 0.00 | 72 | 1013.9 |
| 20260830145113 | 77 | 220 | 3.5 | 3.5 | 0.00 | 0.00 | 0.00 | 73 | 1013.7 |
| 20260830144609 | 76 | 259 | 2.6 | 3.5 | 0.00 | 0.00 | 0.00 | 73 | 1013.6 |
| 20260830144104 | 76 | 247 | 1.7 | 2.6 | 0.00 | 0.00 | 0.00 | 75 | 1013.5 |
| 20260830143600 | 75 | 206 | 5.2 | 7.0 | 0.00 | 0.00 | 0.00 | 75 | 1013.5 |
| 20260830143058 | 74 | 219 | 1.7 | 3.5 | 0.00 | 0.00 | 0.00 | 77 | 1013.4 |
| 20260830142555 | 74 | 228 | 3.5 | 5.2 | 0.00 | 0.00 | 0.00 | 77 | 1013.4 |
| 20260830142054 | 74 | 179 | 5.2 | 6.1 | 0.00 | 0.00 | 0.00 | 77 | 1013.2 |
| 20260830141550 | 74 | 207 | 2.6 | 3.5 | 0.00 | 0.00 | 0.00 | 77 | 1013.2 |
| 20260830141050 | 75 | 210 | 2.6 | 3.5 | 0.00 | 0.00 | 0.00 | 76 | 1013.2 |
| 20260830140544 | 74 | 242 | 3.5 | 5.2 | 0.00 | 0.00 | 0.00 | 77 | 1013.3 |
| 20260830140040 | 74 | 164 | 0.9 | 1.7 | 0.00 | 0.00 | 0.00 | 78 | 1013.4 |
| 20260830135535 | 73 | 159 | 3.5 | 5.2 | 0.00 | 0.00 | 0.00 | 78 | 1013.4 |
| 20260830135030 | 73 | 199 | 5.2 | 6.1 | 0.00 | 0.00 | 0.00 | 78 | 1013.3 |
| 20260830134526 | 73 | 280 | 1.7 | 1.7 | 0.00 | 0.00 | 0.00 | 80 | 1013.4 |
| 20260830134021 | 73 | 241 | 2.6 | 5.2 | 0.00 | 0.00 | 0.00 | 81 | 1013.4 |
| 20260830133517 | 72 | 162 | 2.6 | 3.5 | 0.00 | 0.00 | 0.00 | 82 | 1013.4 |
| 20260830133012 | 72 | 56 | 0.9 | 1.7 | 0.00 | 0.00 | 0.00 | 83 | 1013.4 |
| 20260830132508 | 72 | 188 | 3.5 | 3.5 | 0.00 | 0.00 | 0.00 | 83 | 1013.4 |
| 20260830132008 | 72 | 169 | 2.6 | 3.5 | 0.00 | 0.00 | 0.00 | 82 | 1013.3 |
| 20260830131507 | 72 | 59 | 3.5 | 3.5 | 0.00 | 0.00 | 0.00 | 81 | 1013.5 |
| 20260830131001 | 72 | 88 | 3.5 | 3.5 | 0.00 | 0.00 | 0.00 | 80 | 1013.5 |
| 20260830130457 | 72 | 279 | 3.5 | 5.2 | 0.00 | 0.00 | 0.00 | 80 | 1013.6 |
| 20260830125956 | 71 | 55 | 3.5 | 3.5 | 0.00 | 0.00 | 0.00 | 80 | 1013.5 |
| 20260830125451 | 71 | 187 | 4.3 | 5.2 | 0.00 | 0.00 | 0.00 | 81 | 1013.7 |
| 20260830124950 | 71 | 209 | 3.5 | 3.5 | 0.00 | 0.00 | 0.00 | 81 | 1013.9 |
| 20260830124444 | 71 | 277 | 2.6 | 3.5 | 0.00 | 0.00 | 0.00 | 82 | 1013.9 |
| 20260830123941 | 71 | 192 | 2.6 | 3.5 | 0.00 | 0.00 | 0.00 | 82 | 1014.0 |
| 20260830123437 | 71 | 78 | 3.5 | 3.5 | 0.00 | 0.00 | 0.00 | 82 | 1013.7 |
| 20260830122935 | 71 | 101 | 3.5 | 3.5 | 0.00 | 0.00 | 0.00 | 82 | 1013.7 |
| 20260830122435 | 70 | 352 | 1.7 | 1.7 | 0.00 | 0.00 | 0.00 | 82 | 1014.0 |
| 20260830121930 | 70 | 313 | 0.9 | 0.9 | 0.00 | 0.00 | 0.00 | 82 | 1014.0 |
| 20260830121425 | 70 | 346 | 0.9 | 0.9 | 0.00 | 0.00 | 0.00 | 83 | 1013.7 |
| 20260830120920 | 70 | 288 | 1.7 | 2.6 | 0.00 | 0.00 | 0.00 | 83 | 1013.5 |
| 20260830120415 | 70 | 335 | 0.9 | 1.7 | 0.00 | 0.00 | 0.00 | 83 | 1013.5 |
| 20260830115912 | 70 | 286 | 2.6 | 3.5 | 0.00 | 0.00 | 0.00 | 83 | 1013.5 |
| 20260830115408 | 70 | 157 | 1.7 | 3.5 | 0.00 | 0.00 | 0.00 | 83 | 1013.4 |
| 20260830114902 | 70 | 43 | 2.6 | 2.6 | 0.00 | 0.00 | 0.00 | 83 | 1013.3 |
| 20260830114359 | 70 | 50 | 2.6 | 2.6 | 0.00 | 0.00 | 0.00 | 83 | 1013.3 |
| 20260830113859 | 70 | 194 | 1.7 | 2.6 | 0.00 | 0.00 | 0.00 | 84 | 1013.5 |
| 20260830113354 | 69 | 34 | 0.9 | 1.7 | 0.00 | 0.00 | 0.00 | 84 | 1013.4 |
| 20260830112850 | 69 | 148 | 1.7 | 2.6 | 0.00 | 0.00 | 0.00 | 85 | 1013.2 |